Time,TemperatureF,DewpointF,PressureIn,WindDirection,WindDirectionDegrees,WindSpeedMPH,WindSpeedGustMPH,Humidity,HourlyPrecipIn,Conditions,Clouds,dailyrainin,SoftwareType,DateUTC
2013-01-15 00:00:00,27.5,19.4,28.41,NNW,338,0.0,0.0,71,0.00,,---,0.00,VWS V14.01,2013-01-15 05:00:00,
2013-01-15 00:01:00,27.5,19.4,28.41,WSW,248,0.0,0.0,71,0.00,,---,0.00,VWS V14.01,2013-01-15 05:01:00,
2013-01-15 00:06:00,27.3,19.2,28.41,NNW,338,0.0,0.0,71,0.00,,---,0.00,VWS V14.01,2013-01-15 05:06:00,
2013-01-15 00:11:00,27.3,19.2,28.41,WSW,248,0.0,0.0,71,0.00,,---,0.00,VWS V14.01,2013-01-15 05:11:00,
2013-01-15 00:16:00,27.3,19.2,28.41,WSW,248,0.0,0.0,71,0.00,,---,0.00,VWS V14.01,2013-01-15 05:16:00,
2013-01-15 00:21:00,27.3,19.5,28.41,NNW,338,0.0,0.0,72,0.00,,---,0.00,VWS V14.01,2013-01-15 05:21:00,
2013-01-15 00:26:00,27.1,19.3,28.41,West,270,0.0,0.0,72,0.00,,---,0.00,VWS V14.01,2013-01-15 05:26:00,
2013-01-15 00:31:00,27.1,19.6,28.41,NNW,338,0.0,0.0,73,0.00,,---,0.00,VWS V14.01,2013-01-15 05:31:00,
2013-01-15 00:36:00,27.1,19.6,28.41,WNW,292,0.0,0.0,73,0.00,,---,0.00,VWS V14.01,2013-01-15 05:36:00,
2013-01-15 00:41:00,27.1,19.6,28.41,South,180,0.0,0.0,73,0.00,,---,0.00,VWS V14.01,2013-01-15 05:41:00,
2013-01-15 00:46:00,27.1,19.6,28.41,WNW,292,0.0,0.0,73,0.00,,---,0.00,VWS V14.01,2013-01-15 05:46:00,
2013-01-15 00:51:00,27.1,19.6,28.41,WNW,292,0.0,0.0,73,0.00,,---,0.00,VWS V14.01,2013-01-15 05:51:00,
2013-01-15 00:56:00,27.1,19.6,28.38,NNE,22,0.0,0.0,73,0.00,,---,0.00,VWS V14.01,2013-01-15 05:56:00,
2013-01-15 01:01:00,27.1,19.6,28.38,NNW,338,0.0,0.0,73,0.00,,---,0.00,VWS V14.01,2013-01-15 06:01:00,
2013-01-15 01:06:00,27.1,19.6,28.38,NNW,338,0.0,0.0,73,0.00,,---,0.00,VWS V14.01,2013-01-15 06:06:00,
2013-01-15 01:11:00,27.1,19.6,28.38,North,0,0.0,0.0,73,0.00,,---,0.00,VWS V14.01,2013-01-15 06:11:00,
2013-01-15 01:16:00,27.1,19.6,28.38,NW,315,0.0,0.0,73,0.00,,---,0.00,VWS V14.01,2013-01-15 06:16:00,
2013-01-15 01:21:00,27.0,19.5,28.38,WNW,292,0.0,0.0,73,0.00,,---,0.00,VWS V14.01,2013-01-15 06:21:00,
2013-01-15 01:26:00,27.0,19.5,28.38,WNW,292,0.0,0.0,73,0.00,,---,0.00,VWS V14.01,2013-01-15 06:26:00,
2013-01-15 01:31:00,27.0,19.5,28.38,NW,315,0.0,0.0,73,0.00,,---,0.00,VWS V14.01,2013-01-15 06:31:00,
2013-01-15 01:36:00,27.0,19.5,28.38,WSW,248,0.0,0.0,73,0.00,,---,0.00,VWS V14.01,2013-01-15 06:36:00,
2013-01-15 01:41:00,27.0,19.5,28.38,NNW,338,0.0,0.0,73,0.00,,---,0.00,VWS V14.01,2013-01-15 06:41:00,
2013-01-15 01:46:00,27.0,19.5,28.38,NNW,338,0.0,0.0,73,0.00,,---,0.00,VWS V14.01,2013-01-15 06:46:00,
2013-01-15 01:51:00,27.0,19.5,28.38,NNW,338,0.0,0.0,73,0.00,,---,0.00,VWS V14.01,2013-01-15 06:51:00,
2013-01-15 01:56:00,27.0,19.5,28.38,WNW,292,0.0,0.0,73,0.00,,---,0.00,VWS V14.01,2013-01-15 06:56:00,
2013-01-15 02:01:00,27.0,19.5,28.38,NNW,338,0.0,0.0,73,0.00,,---,0.00,VWS V14.01,2013-01-15 07:01:00,
2013-01-15 02:06:00,27.0,19.5,28.38,WNW,292,0.0,0.0,73,0.00,,---,0.00,VWS V14.01,2013-01-15 07:06:00,
2013-01-15 02:11:00,27.0,19.5,28.38,NNW,338,0.0,0.0,73,0.00,,---,0.00,VWS V14.01,2013-01-15 07:11:00,
2013-01-15 02:16:00,27.0,19.5,28.38,NNW,338,0.0,0.0,73,0.00,,---,0.00,VWS V14.01,2013-01-15 07:16:00,
2013-01-15 02:21:00,26.8,19.3,28.38,NNW,338,0.0,0.0,73,0.00,,---,0.00,VWS V14.01,2013-01-15 07:21:00,
2013-01-15 02:26:00,26.8,19.3,28.38,NNW,338,0.0,0.0,73,0.00,,---,0.00,VWS V14.01,2013-01-15 07:26:00,
2013-01-15 02:31:00,26.8,19.3,28.38,WNW,292,0.0,0.0,73,0.00,,---,0.00,VWS V14.01,2013-01-15 07:31:00,
2013-01-15 02:36:00,26.8,19.3,28.38,WNW,292,0.0,0.0,73,0.00,,---,0.00,VWS V14.01,2013-01-15 07:36:00,
2013-01-15 02:41:00,26.8,19.3,28.38,WNW,292,0.0,0.0,73,0.00,,---,0.00,VWS V14.01,2013-01-15 07:41:00,
2013-01-15 02:46:00,26.4,19.3,28.38,WNW,292,0.0,0.0,74,0.00,,---,0.00,VWS V14.01,2013-01-15 07:46:00,
2013-01-15 02:51:00,26.4,19.3,28.38,NW,315,0.0,0.0,74,0.00,,---,0.00,VWS V14.01,2013-01-15 07:51:00,
2013-01-15 02:56:00,26.2,19.4,28.38,NW,315,0.0,0.0,75,0.00,,---,0.00,VWS V14.01,2013-01-15 07:56:00,
2013-01-15 03:01:00,26.2,19.4,28.38,WNW,292,0.0,0.0,75,0.00,,---,0.00,VWS V14.01,2013-01-15 08:01:00,
2013-01-15 03:06:00,26.4,19.6,28.38,NW,315,0.0,0.0,75,0.00,,---,0.00,VWS V14.01,2013-01-15 08:06:00,
2013-01-15 03:11:00,26.4,19.6,28.38,NW,315,0.0,0.0,75,0.00,,---,0.00,VWS V14.01,2013-01-15 08:11:00,
2013-01-15 03:16:00,26.6,19.8,28.38,WSW,248,0.0,0.0,75,0.00,,---,0.00,VWS V14.01,2013-01-15 08:16:00,
2013-01-15 03:21:00,26.6,19.8,28.38,NW,315,0.0,0.0,75,0.00,,---,0.00,VWS V14.01,2013-01-15 08:21:00,
2013-01-15 03:26:00,26.6,19.8,28.38,WNW,292,0.0,0.0,75,0.00,,---,0.00,VWS V14.01,2013-01-15 08:26:00,
2013-01-15 03:31:00,26.6,19.8,28.38,NNW,338,0.0,0.0,75,0.00,,---,0.00,VWS V14.01,2013-01-15 08:31:00,
2013-01-15 03:36:00,26.6,19.8,28.38,NNW,338,0.0,0.0,75,0.00,,---,0.00,VWS V14.01,2013-01-15 08:36:00,
2013-01-15 03:41:00,26.6,19.8,28.38,WNW,292,0.0,0.0,75,0.00,,---,0.00,VWS V14.01,2013-01-15 08:41:00,
2013-01-15 03:46:00,26.6,19.4,28.38,NNW,338,0.0,0.0,74,0.00,,---,0.00,VWS V14.01,2013-01-15 08:46:00,
2013-01-15 03:51:00,26.6,19.8,28.38,NW,315,0.0,0.0,75,0.00,,---,0.00,VWS V14.01,2013-01-15 08:51:00,
2013-01-15 03:56:00,26.6,19.8,28.38,NNW,338,0.0,0.0,75,0.00,,---,0.00,VWS V14.01,2013-01-15 08:56:00,
2013-01-15 04:01:00,26.6,19.8,28.38,NNW,338,0.0,0.0,75,0.00,,---,0.00,VWS V14.01,2013-01-15 09:01:00,
2013-01-15 04:06:00,26.6,19.8,28.38,WNW,292,0.0,0.0,75,0.00,,---,0.00,VWS V14.01,2013-01-15 09:06:00,
2013-01-15 04:11:00,26.6,19.8,28.38,NNE,22,0.0,0.0,75,0.00,,---,0.00,VWS V14.01,2013-01-15 09:11:00,
2013-01-15 04:16:00,26.6,19.8,28.38,NNW,338,0.0,0.0,75,0.00,,---,0.00,VWS V14.01,2013-01-15 09:16:00,
2013-01-15 04:21:00,26.4,19.6,28.38,WNW,292,0.0,0.0,75,0.00,,---,0.00,VWS V14.01,2013-01-15 09:21:00,
2013-01-15 04:26:00,26.4,19.6,28.35,NNW,338,0.0,0.0,75,0.00,,---,0.00,VWS V14.01,2013-01-15 09:26:00,
2013-01-15 04:31:00,26.4,19.6,28.35,NNW,338,0.0,0.0,75,0.00,,---,0.00,VWS V14.01,2013-01-15 09:31:00,
2013-01-15 04:36:00,26.4,19.6,28.35,NNW,338,0.0,0.0,75,0.00,,---,0.00,VWS V14.01,2013-01-15 09:36:00,
2013-01-15 04:41:00,26.4,19.6,28.38,WNW,292,0.0,0.0,75,0.00,,---,0.00,VWS V14.01,2013-01-15 09:41:00,
2013-01-15 04:46:00,26.4,19.9,28.38,WNW,292,0.0,0.0,76,0.00,,---,0.00,VWS V14.01,2013-01-15 09:46:00,
2013-01-15 04:51:00,26.4,19.9,28.38,WNW,292,0.0,0.0,76,0.00,,---,0.00,VWS V14.01,2013-01-15 09:51:00,
2013-01-15 04:56:00,26.2,19.7,28.35,NNW,338,0.0,0.0,76,0.00,,---,0.00,VWS V14.01,2013-01-15 09:56:00,
2013-01-15 05:01:00,26.2,19.7,28.35,WNW,292,0.0,0.0,76,0.00,,---,0.00,VWS V14.01,2013-01-15 10:01:00,
2013-01-15 05:06:00,26.2,19.7,28.35,NNW,338,0.0,0.0,76,0.00,,---,0.00,VWS V14.01,2013-01-15 10:06:00,
2013-01-15 05:11:00,26.2,20.0,28.38,NW,315,0.0,0.0,77,0.00,,---,0.00,VWS V14.01,2013-01-15 10:11:00,
2013-01-15 05:16:00,26.2,20.0,28.38,NW,315,0.0,0.0,77,0.00,,---,0.00,VWS V14.01,2013-01-15 10:16:00,
2013-01-15 05:21:00,26.2,20.0,28.38,WNW,292,0.0,0.0,77,0.00,,---,0.00,VWS V14.01,2013-01-15 10:21:00,
2013-01-15 05:26:00,26.1,19.9,28.38,NNW,338,0.0,0.0,77,0.00,,---,0.00,VWS V14.01,2013-01-15 10:26:00,
2013-01-15 05:31:00,26.1,19.9,28.38,WNW,292,0.0,0.0,77,0.00,,---,0.00,VWS V14.01,2013-01-15 10:31:00,
2013-01-15 05:36:00,26.1,19.9,28.38,NNW,338,0.0,0.0,77,0.00,,---,0.00,VWS V14.01,2013-01-15 10:36:00,
2013-01-15 05:41:00,25.9,19.4,28.35,WNW,292,0.0,0.0,76,0.00,,---,0.00,VWS V14.01,2013-01-15 10:41:00,
2013-01-15 05:46:00,25.9,19.7,28.35,WNW,292,0.0,0.0,77,0.00,,---,0.00,VWS V14.01,2013-01-15 10:46:00,
2013-01-15 05:51:00,25.9,19.7,28.35,NNW,338,0.0,0.0,77,0.00,,---,0.00,VWS V14.01,2013-01-15 10:51:00,
2013-01-15 05:56:00,25.7,19.5,28.38,NNW,338,0.0,0.0,77,0.00,,---,0.00,VWS V14.01,2013-01-15 10:56:00,
2013-01-15 06:01:00,25.7,19.5,28.38,NW,315,0.0,0.0,77,0.00,,---,0.00,VWS V14.01,2013-01-15 11:01:00,
2013-01-15 06:06:00,25.7,19.5,28.38,WNW,292,0.0,0.0,77,0.00,,---,0.00,VWS V14.01,2013-01-15 11:06:00,
2013-01-15 06:11:00,25.7,19.5,28.38,NNW,338,0.0,0.0,77,0.00,,---,0.00,VWS V14.01,2013-01-15 11:11:00,
2013-01-15 06:16:00,25.7,19.5,28.38,NW,315,0.0,0.0,77,0.00,,---,0.00,VWS V14.01,2013-01-15 11:16:00,
2013-01-15 06:21:00,25.5,19.3,28.38,WNW,292,0.0,0.0,77,0.00,,---,0.00,VWS V14.01,2013-01-15 11:21:00,
2013-01-15 06:26:00,25.7,19.5,28.38,NNW,338,0.0,0.0,77,0.00,,---,0.00,VWS V14.01,2013-01-15 11:26:00,
2013-01-15 06:31:00,25.7,19.5,28.38,NNW,338,0.0,0.0,77,0.00,,---,0.00,VWS V14.01,2013-01-15 11:31:00,
2013-01-15 06:36:00,25.5,19.3,28.38,NW,315,0.0,0.0,77,0.00,,---,0.00,VWS V14.01,2013-01-15 11:36:00,
2013-01-15 06:41:00,25.5,19.6,28.38,NW,315,0.0,0.0,78,0.00,,---,0.00,VWS V14.01,2013-01-15 11:41:00,
2013-01-15 06:46:00,25.5,19.6,28.38,NW,315,0.0,0.0,78,0.00,,---,0.00,VWS V14.01,2013-01-15 11:46:00,
2013-01-15 06:51:00,25.5,19.6,28.38,NNW,338,0.0,0.0,78,0.00,,---,0.00,VWS V14.01,2013-01-15 11:51:00,
2013-01-15 06:56:00,25.5,19.6,28.35,NNW,338,0.0,0.0,78,0.00,,---,0.00,VWS V14.01,2013-01-15 11:56:00,
2013-01-15 07:01:00,25.5,19.6,28.35,NNW,338,0.0,0.0,78,0.00,,---,0.00,VWS V14.01,2013-01-15 12:01:00,
2013-01-15 07:06:00,25.5,19.6,28.35,NNW,338,0.0,0.0,78,0.00,,---,0.00,VWS V14.01,2013-01-15 12:06:00,
2013-01-15 07:11:00,25.3,19.5,28.41,NNW,338,0.0,0.0,78,0.00,,---,0.00,VWS V14.01,2013-01-15 12:11:00,
2013-01-15 07:16:00,25.3,19.5,28.41,NW,315,0.0,0.0,78,0.00,,---,0.00,VWS V14.01,2013-01-15 12:16:00,
2013-01-15 07:21:00,25.3,19.5,28.41,NW,315,0.0,0.0,78,0.00,,---,0.00,VWS V14.01,2013-01-15 12:21:00,
2013-01-15 07:26:00,25.3,19.5,28.38,WNW,292,0.0,0.0,78,0.00,,---,0.00,VWS V14.01,2013-01-15 12:26:00,
2013-01-15 07:31:00,25.3,19.5,28.38,NW,315,0.0,0.0,78,0.00,,---,0.00,VWS V14.01,2013-01-15 12:31:00,
2013-01-15 07:36:00,25.3,19.5,28.38,WNW,292,0.0,0.0,78,0.00,,---,0.00,VWS V14.01,2013-01-15 12:36:00,
2013-01-15 07:41:00,25.3,19.5,28.38,NNW,338,0.0,0.0,78,0.00,,---,0.00,VWS V14.01,2013-01-15 12:41:00,
2013-01-15 07:46:00,25.3,19.5,28.38,NW,315,0.0,0.0,78,0.00,,---,0.00,VWS V14.01,2013-01-15 12:46:00,
2013-01-15 07:51:00,25.3,19.8,28.38,NW,315,0.0,0.0,79,0.00,,---,0.00,VWS V14.01,2013-01-15 12:51:00,
2013-01-15 07:56:00,25.5,19.9,28.38,NW,315,0.0,0.0,79,0.00,,---,0.00,VWS V14.01,2013-01-15 12:56:00,
2013-01-15 08:01:00,25.7,20.1,28.38,WNW,292,0.0,0.0,79,0.00,,---,0.00,VWS V14.01,2013-01-15 13:01:00,
2013-01-15 08:06:00,25.9,20.0,28.38,WNW,292,0.0,0.0,78,0.00,,---,0.00,VWS V14.01,2013-01-15 13:06:00,
2013-01-15 08:11:00,26.1,20.1,28.41,NW,315,0.0,0.0,78,0.00,,---,0.00,VWS V14.01,2013-01-15 13:11:00,
2013-01-15 08:16:00,26.1,20.1,28.41,NNE,22,0.0,0.0,78,0.00,,---,0.00,VWS V14.01,2013-01-15 13:16:00,
2013-01-15 08:21:00,26.2,20.3,28.41,NNE,22,0.0,0.0,78,0.00,,---,0.00,VWS V14.01,2013-01-15 13:21:00,
2013-01-15 08:26:00,26.4,20.5,28.41,WNW,292,0.0,0.0,78,0.00,,---,0.00,VWS V14.01,2013-01-15 13:26:00,
2013-01-15 08:31:00,26.4,20.2,28.41,NNW,338,0.0,0.0,77,0.00,,---,0.00,VWS V14.01,2013-01-15 13:31:00,
2013-01-15 08:36:00,26.6,20.4,28.41,NNW,338,0.0,0.0,77,0.00,,---,0.00,VWS V14.01,2013-01-15 13:36:00,
2013-01-15 08:41:00,26.8,20.2,28.44,WNW,292,0.0,0.0,76,0.00,,---,0.00,VWS V14.01,2013-01-15 13:41:00,
2013-01-15 08:46:00,26.8,19.9,28.44,NW,315,0.0,0.0,75,0.00,,---,0.00,VWS V14.01,2013-01-15 13:46:00,
2013-01-15 08:51:00,27.0,20.1,28.44,NNW,338,0.0,0.0,75,0.00,,---,0.00,VWS V14.01,2013-01-15 13:51:00,
2013-01-15 08:56:00,27.5,20.6,28.44,NW,315,0.0,0.0,75,0.00,,---,0.00,VWS V14.01,2013-01-15 13:56:00,
2013-01-15 09:01:00,28.0,21.1,28.44,WNW,292,0.0,0.0,75,0.00,,---,0.00,VWS V14.01,2013-01-15 14:01:00,
2013-01-15 09:06:00,28.4,21.2,28.44,NNW,338,0.0,0.0,74,0.00,,---,0.00,VWS V14.01,2013-01-15 14:06:00,
2013-01-15 09:11:00,28.4,20.5,28.44,NW,315,0.0,0.0,72,0.00,,---,0.00,VWS V14.01,2013-01-15 14:11:00,
2013-01-15 09:16:00,28.2,20.0,28.44,NW,315,0.0,0.0,71,0.00,,---,0.00,VWS V14.01,2013-01-15 14:16:00,
2013-01-15 09:21:00,28.4,19.9,28.44,NW,315,0.0,0.0,70,0.00,,---,0.00,VWS V14.01,2013-01-15 14:21:00,
2013-01-15 09:26:00,28.2,19.7,28.44,WNW,292,0.0,0.0,70,0.00,,---,0.00,VWS V14.01,2013-01-15 14:26:00,
2013-01-15 09:31:00,28.2,19.7,28.44,WNW,292,0.0,0.0,70,0.00,,---,0.00,VWS V14.01,2013-01-15 14:31:00,
2013-01-15 09:36:00,28.0,19.2,28.44,WNW,292,0.0,0.0,69,0.00,,---,0.00,VWS V14.01,2013-01-15 14:36:00,
2013-01-15 09:41:00,28.4,19.9,28.44,WSW,248,0.0,0.0,70,0.00,,---,0.00,VWS V14.01,2013-01-15 14:41:00,
2013-01-15 09:46:00,28.6,19.7,28.44,WNW,292,0.0,0.0,69,0.00,,---,0.00,VWS V14.01,2013-01-15 14:46:00,
2013-01-15 09:51:00,28.8,19.2,28.44,WNW,292,0.0,0.0,67,0.00,,---,0.00,VWS V14.01,2013-01-15 14:51:00,
2013-01-15 09:56:00,29.5,19.5,28.44,NW,315,0.0,0.0,66,0.00,,---,0.00,VWS V14.01,2013-01-15 14:56:00,
2013-01-15 10:01:00,28.8,17.8,28.44,North,0,0.0,0.0,63,0.00,,---,0.00,VWS V14.01,2013-01-15 15:01:00,
2013-01-15 10:06:00,28.6,18.0,28.44,WNW,292,0.0,0.0,64,0.00,,---,0.00,VWS V14.01,2013-01-15 15:06:00,
2013-01-15 10:11:00,28.6,18.0,28.44,WNW,292,0.0,0.0,64,0.00,,---,0.00,VWS V14.01,2013-01-15 15:11:00,
2013-01-15 10:16:00,28.8,18.1,28.44,NNW,338,0.0,0.0,64,0.00,,---,0.00,VWS V14.01,2013-01-15 15:16:00,
2013-01-15 10:21:00,28.9,17.9,28.44,North,0,0.0,0.0,63,0.00,,---,0.00,VWS V14.01,2013-01-15 15:21:00,
2013-01-15 10:26:00,28.8,17.0,28.41,NNW,338,0.0,0.0,61,0.00,,---,0.00,VWS V14.01,2013-01-15 15:26:00,
2013-01-15 10:31:00,28.6,16.1,28.41,NNW,338,0.0,0.0,59,0.00,,---,0.00,VWS V14.01,2013-01-15 15:31:00,
2013-01-15 10:36:00,28.6,15.7,28.41,WNW,292,0.0,0.0,58,0.00,,---,0.00,VWS V14.01,2013-01-15 15:36:00,
2013-01-15 10:41:00,28.4,15.5,28.41,NNW,338,0.0,0.0,58,0.00,,---,0.00,VWS V14.01,2013-01-15 15:41:00,
2013-01-15 10:46:00,28.6,15.7,28.41,NW,315,0.0,0.0,58,0.00,,---,0.00,VWS V14.01,2013-01-15 15:46:00,
2013-01-15 10:51:00,28.9,16.4,28.41,WNW,292,0.0,0.0,59,0.00,,---,0.00,VWS V14.01,2013-01-15 15:51:00,
2013-01-15 10:55:00,28.8,16.2,28.38,NNE,22,0.0,0.0,59,0.00,,---,0.00,VWS V14.01,2013-01-15 15:55:00,
2013-01-15 11:00:00,28.6,16.1,28.38,NNW,338,0.0,0.0,59,0.00,,---,0.00,VWS V14.01,2013-01-15 16:00:00,
2013-01-15 11:05:00,28.9,16.8,28.38,WNW,292,0.0,0.0,60,0.00,,---,0.00,VWS V14.01,2013-01-15 16:05:00,
2013-01-15 11:10:00,28.8,15.9,28.38,NW,315,0.0,0.0,58,0.00,,---,0.00,VWS V14.01,2013-01-15 16:10:00,
2013-01-15 11:15:00,28.8,15.9,28.38,WNW,292,0.0,0.0,58,0.00,,---,0.00,VWS V14.01,2013-01-15 16:15:00,
2013-01-15 11:20:00,28.8,15.9,28.38,NNW,338,0.0,0.0,58,0.00,,---,0.00,VWS V14.01,2013-01-15 16:20:00,
2013-01-15 11:25:00,28.6,15.3,28.38,NNW,338,0.0,0.0,57,0.00,,---,0.00,VWS V14.01,2013-01-15 16:25:00,
2013-01-15 11:30:00,28.6,15.3,28.38,West,270,0.0,0.0,57,0.00,,---,0.00,VWS V14.01,2013-01-15 16:30:00,
2013-01-15 11:35:00,28.6,15.3,28.38,WNW,292,0.0,0.0,57,0.00,,---,0.00,VWS V14.01,2013-01-15 16:35:00,
2013-01-15 11:40:00,28.8,15.9,28.38,NW,315,0.0,0.0,58,0.00,,---,0.00,VWS V14.01,2013-01-15 16:40:00,
2013-01-15 11:45:00,29.1,16.2,28.38,NE,45,0.0,0.0,58,0.00,,---,0.00,VWS V14.01,2013-01-15 16:45:00,
2013-01-15 11:50:00,29.7,16.7,28.38,NNW,338,0.0,0.0,58,0.00,,---,0.00,VWS V14.01,2013-01-15 16:50:00,
2013-01-15 11:55:00,29.7,16.7,28.35,NW,315,0.0,0.0,58,0.00,,---,0.00,VWS V14.01,2013-01-15 16:55:00,
2013-01-15 12:00:00,29.5,15.7,28.35,WNW,292,0.0,0.0,56,0.00,,---,0.00,VWS V14.01,2013-01-15 17:00:00,
2013-01-15 12:05:00,29.3,15.6,28.35,WNW,292,0.0,0.0,56,0.00,,---,0.00,VWS V14.01,2013-01-15 17:05:00,
2013-01-15 12:10:00,30.2,16.8,28.38,WNW,292,0.0,0.0,57,0.00,,---,0.00,VWS V14.01,2013-01-15 17:10:00,
2013-01-15 12:15:00,30.2,16.4,28.38,WNW,292,0.0,0.0,56,0.00,,---,0.00,VWS V14.01,2013-01-15 17:15:00,
2013-01-15 12:20:00,30.9,16.7,28.38,WNW,292,0.0,0.0,55,0.00,,---,0.00,VWS V14.01,2013-01-15 17:20:00,
2013-01-15 12:25:00,31.5,17.2,28.38,WNW,292,0.0,0.0,55,0.00,,---,0.00,VWS V14.01,2013-01-15 17:25:00,
2013-01-15 12:30:00,31.5,17.2,28.38,WNW,292,0.0,0.0,55,0.00,,---,0.00,VWS V14.01,2013-01-15 17:30:00,
2013-01-15 12:35:00,31.5,16.8,28.38,NNW,338,0.0,0.0,54,0.00,,---,0.00,VWS V14.01,2013-01-15 17:35:00,
2013-01-15 12:40:00,30.7,15.6,28.38,NW,315,0.0,0.0,53,0.00,,---,0.00,VWS V14.01,2013-01-15 17:40:00,
2013-01-15 12:45:00,31.1,16.4,28.38,NNW,338,0.0,0.0,54,0.00,,---,0.00,VWS V14.01,2013-01-15 17:45:00,
2013-01-15 12:50:00,30.2,15.6,28.38,NNW,338,0.0,0.0,54,0.00,,---,0.00,VWS V14.01,2013-01-15 17:50:00,
2013-01-15 12:55:00,30.4,15.7,28.38,NNW,338,0.0,0.0,54,0.00,,---,0.00,VWS V14.01,2013-01-15 17:55:00,
2013-01-15 13:00:00,30.4,15.7,28.38,NW,315,0.0,0.0,54,0.00,,---,0.00,VWS V14.01,2013-01-15 18:00:00,
2013-01-15 13:05:00,30.9,16.7,28.38,WNW,292,0.0,0.0,55,0.00,,---,0.00,VWS V14.01,2013-01-15 18:05:00,
2013-01-15 13:10:00,30.4,15.7,28.35,WNW,292,0.0,0.0,54,0.00,,---,0.00,VWS V14.01,2013-01-15 18:10:00,
2013-01-15 13:15:00,30.4,15.7,28.35,NNW,338,0.0,0.0,54,0.00,,---,0.00,VWS V14.01,2013-01-15 18:15:00,
2013-01-15 13:20:00,30.6,15.9,28.35,NNW,338,0.0,0.0,54,0.00,,---,0.00,VWS V14.01,2013-01-15 18:20:00,
2013-01-15 13:25:00,30.9,15.8,28.35,NW,315,0.0,0.0,53,0.00,,---,0.00,VWS V14.01,2013-01-15 18:25:00,
2013-01-15 13:30:00,30.7,15.6,28.35,WNW,292,0.0,0.0,53,0.00,,---,0.00,VWS V14.01,2013-01-15 18:30:00,
2013-01-15 13:35:00,31.1,16.4,28.35,NNW,338,0.0,0.0,54,0.00,,---,0.00,VWS V14.01,2013-01-15 18:35:00,
2013-01-15 13:40:00,31.6,16.9,28.32,SSW,202,0.0,0.0,54,0.00,,---,0.00,VWS V14.01,2013-01-15 18:40:00,
2013-01-15 13:45:00,32.7,17.5,28.32,WNW,292,0.0,0.0,53,0.00,,---,0.00,VWS V14.01,2013-01-15 18:45:00,
2013-01-15 13:50:00,32.4,16.7,28.32,NNW,338,0.0,0.0,52,0.00,,---,0.00,VWS V14.01,2013-01-15 18:50:00,
2013-01-15 13:55:00,32.5,17.3,28.32,WSW,248,0.0,0.0,53,0.00,,---,0.00,VWS V14.01,2013-01-15 18:55:00,
2013-01-15 14:00:00,32.2,16.5,28.32,WNW,292,0.0,0.0,52,0.00,,---,0.00,VWS V14.01,2013-01-15 19:00:00,
2013-01-15 14:05:00,33.8,18.0,28.32,SSW,202,0.0,0.0,52,0.00,,---,0.00,VWS V14.01,2013-01-15 19:05:00,
2013-01-15 14:10:00,33.8,17.6,28.32,WNW,292,0.0,0.0,51,0.00,,---,0.00,VWS V14.01,2013-01-15 19:10:00,
2013-01-15 14:15:00,33.4,17.3,28.32,WNW,292,0.0,0.0,51,0.00,,---,0.00,VWS V14.01,2013-01-15 19:15:00,
2013-01-15 14:20:00,33.6,15.6,28.32,WNW,292,6.3,6.3,47,0.00,,---,0.00,VWS V14.01,2013-01-15 19:20:00,
2013-01-15 14:25:00,34.9,17.2,28.32,NW,315,0.0,0.0,48,0.00,,---,0.00,VWS V14.01,2013-01-15 19:25:00,
2013-01-15 14:30:00,34.5,15.9,28.32,NW,315,3.1,7.2,46,0.00,,---,0.00,VWS V14.01,2013-01-15 19:30:00,
2013-01-15 14:35:00,33.8,15.2,28.32,WNW,292,5.4,5.4,46,0.00,,---,0.00,VWS V14.01,2013-01-15 19:35:00,
2013-01-15 14:40:00,33.4,15.4,28.32,North,0,3.8,4.9,47,0.00,,---,0.00,VWS V14.01,2013-01-15 19:40:00,
2013-01-15 14:45:00,32.5,15.0,28.32,NNW,338,2.7,4.9,48,0.00,,---,0.00,VWS V14.01,2013-01-15 19:45:00,
2013-01-15 14:50:00,32.2,15.2,28.32,South,180,0.0,5.8,49,0.00,,---,0.00,VWS V14.01,2013-01-15 19:50:00,
2013-01-15 14:55:00,31.8,14.9,28.32,NW,315,0.0,0.0,49,0.00,,---,0.00,VWS V14.01,2013-01-15 19:55:00,
2013-01-15 15:00:00,31.3,14.8,28.32,West,270,0.0,0.0,50,0.00,,---,0.00,VWS V14.01,2013-01-15 20:00:00,
2013-01-15 15:05:00,30.9,14.9,28.32,West,270,0.0,0.0,51,0.00,,---,0.00,VWS V14.01,2013-01-15 20:05:00,
2013-01-15 15:10:00,30.7,15.2,28.32,NNW,338,0.0,0.0,52,0.00,,---,0.00,VWS V14.01,2013-01-15 20:10:00,
2013-01-15 15:15:00,30.2,15.1,28.32,NNW,338,0.0,0.0,53,0.00,,---,0.00,VWS V14.01,2013-01-15 20:15:00,
2013-01-15 15:20:00,29.7,15.1,28.32,North,0,0.0,0.0,54,0.00,,---,0.00,VWS V14.01,2013-01-15 20:20:00,
2013-01-15 15:25:00,29.5,15.3,28.32,NNW,338,0.0,0.0,55,0.00,,---,0.00,VWS V14.01,2013-01-15 20:25:00,
2013-01-15 15:30:00,29.1,15.4,28.32,NW,315,0.0,0.0,56,0.00,,---,0.00,VWS V14.01,2013-01-15 20:30:00,
2013-01-15 15:35:00,29.1,15.8,28.32,NW,315,0.0,0.0,57,0.00,,---,0.00,VWS V14.01,2013-01-15 20:35:00,
2013-01-15 15:40:00,28.8,15.9,28.32,NNW,338,0.0,0.0,58,0.00,,---,0.00,VWS V14.01,2013-01-15 20:40:00,
2013-01-15 15:45:00,28.6,15.7,28.32,WNW,292,0.0,0.0,58,0.00,,---,0.00,VWS V14.01,2013-01-15 20:45:00,
2013-01-15 15:50:00,28.4,15.9,28.32,NW,315,0.0,0.0,59,0.00,,---,0.00,VWS V14.01,2013-01-15 20:50:00,
2013-01-15 15:55:00,28.2,16.1,28.32,North,0,0.0,0.0,60,0.00,,---,0.00,VWS V14.01,2013-01-15 20:55:00,
2013-01-15 16:00:00,28.0,16.3,28.32,NNW,338,0.0,0.0,61,0.00,,---,0.00,VWS V14.01,2013-01-15 21:00:00,
2013-01-15 16:05:00,27.9,16.2,28.32,NNW,338,0.0,0.0,61,0.00,,---,0.00,VWS V14.01,2013-01-15 21:05:00,
2013-01-15 16:10:00,27.7,16.4,28.35,NW,315,0.0,0.0,62,0.00,,---,0.00,VWS V14.01,2013-01-15 21:10:00,
2013-01-15 16:15:00,27.3,16.4,28.35,NW,315,0.0,0.0,63,0.00,,---,0.00,VWS V14.01,2013-01-15 21:15:00,
2013-01-15 16:20:00,27.1,16.2,28.35,NNW,338,0.0,0.0,63,0.00,,---,0.00,VWS V14.01,2013-01-15 21:20:00,
2013-01-15 16:25:00,27.0,16.4,28.32,NNW,338,0.0,0.0,64,0.00,,---,0.00,VWS V14.01,2013-01-15 21:25:00,
2013-01-15 16:30:00,27.0,16.8,28.32,NNW,338,0.0,0.0,65,0.00,,---,0.00,VWS V14.01,2013-01-15 21:30:00,
2013-01-15 16:35:00,26.8,16.6,28.32,NW,315,0.0,0.0,65,0.00,,---,0.00,VWS V14.01,2013-01-15 21:35:00,
2013-01-15 16:40:00,26.6,16.8,28.32,NNW,338,0.0,0.0,66,0.00,,---,0.00,VWS V14.01,2013-01-15 21:40:00,
2013-01-15 16:45:00,26.4,16.6,28.32,NNW,338,0.0,0.0,66,0.00,,---,0.00,VWS V14.01,2013-01-15 21:45:00,
2013-01-15 16:50:00,26.2,16.8,28.32,NNW,338,0.0,0.0,67,0.00,,---,0.00,VWS V14.01,2013-01-15 21:50:00,
2013-01-15 16:55:00,26.2,16.8,28.32,NNW,338,0.0,0.0,67,0.00,,---,0.00,VWS V14.01,2013-01-15 21:55:00,
2013-01-15 17:00:00,26.1,16.6,28.32,NNW,338,0.0,0.0,67,0.00,,---,0.00,VWS V14.01,2013-01-15 22:00:00,
2013-01-15 17:05:00,26.1,16.6,28.32,NNW,338,0.0,0.0,67,0.00,,---,0.00,VWS V14.01,2013-01-15 22:05:00,
2013-01-15 17:10:00,26.1,16.6,28.32,NNW,338,0.0,0.0,67,0.00,,---,0.00,VWS V14.01,2013-01-15 22:10:00,
2013-01-15 17:15:00,26.1,16.6,28.32,NNW,338,0.0,0.0,67,0.00,,---,0.00,VWS V14.01,2013-01-15 22:15:00,
2013-01-15 17:20:00,26.1,16.6,28.32,NNW,338,0.0,0.0,67,0.00,,---,0.00,VWS V14.01,2013-01-15 22:20:00,
2013-01-15 17:25:00,26.1,16.6,28.35,North,0,0.0,0.0,67,0.00,,---,0.00,VWS V14.01,2013-01-15 22:25:00,
2013-01-15 17:30:00,25.9,16.5,28.35,WNW,292,0.0,0.0,67,0.00,,---,0.00,VWS V14.01,2013-01-15 22:30:00,
2013-01-15 17:35:00,25.9,16.8,28.35,NW,315,0.0,0.0,68,0.00,,---,0.00,VWS V14.01,2013-01-15 22:35:00,
2013-01-15 17:40:00,25.9,16.5,28.35,WNW,292,0.0,0.0,67,0.00,,---,0.00,VWS V14.01,2013-01-15 22:40:00,
2013-01-15 17:45:00,25.9,16.5,28.35,WNW,292,0.0,0.0,67,0.00,,---,0.00,VWS V14.01,2013-01-15 22:45:00,
2013-01-15 17:50:00,25.9,16.8,28.35,NW,315,0.0,0.0,68,0.00,,---,0.00,VWS V14.01,2013-01-15 22:50:00,
2013-01-15 17:55:00,25.7,16.6,28.35,NNW,338,0.0,0.0,68,0.00,,---,0.00,VWS V14.01,2013-01-15 22:55:00,
2013-01-15 18:00:00,25.7,16.3,28.35,WNW,292,0.0,0.0,67,0.00,,---,0.00,VWS V14.01,2013-01-15 23:00:00,
2013-01-15 18:05:00,25.5,16.1,28.35,NNW,338,0.0,0.0,67,0.00,,---,0.00,VWS V14.01,2013-01-15 23:05:00,
2013-01-15 18:10:00,25.5,16.1,28.32,North,0,0.0,0.0,67,0.00,,---,0.00,VWS V14.01,2013-01-15 23:10:00,
2013-01-15 18:15:00,25.3,15.9,28.32,North,0,0.0,0.0,67,0.00,,---,0.00,VWS V14.01,2013-01-15 23:15:00,
2013-01-15 18:20:00,25.3,15.9,28.32,WSW,248,0.0,0.0,67,0.00,,---,0.00,VWS V14.01,2013-01-15 23:20:00,
2013-01-15 18:25:00,25.3,15.6,28.35,WNW,292,0.0,0.0,66,0.00,,---,0.00,VWS V14.01,2013-01-15 23:25:00,
2013-01-15 18:30:00,25.3,15.6,28.35,NNW,338,0.0,0.0,66,0.00,,---,0.00,VWS V14.01,2013-01-15 23:30:00,
2013-01-15 18:35:00,25.3,15.2,28.35,WNW,292,0.0,0.0,65,0.00,,---,0.00,VWS V14.01,2013-01-15 23:35:00,
2013-01-15 18:40:00,25.3,15.2,28.32,NNW,338,0.0,0.0,65,0.00,,---,0.00,VWS V14.01,2013-01-15 23:40:00,
2013-01-15 18:45:00,25.3,15.6,28.32,NNW,338,0.0,0.0,66,0.00,,---,0.00,VWS V14.01,2013-01-15 23:45:00,
2013-01-15 18:50:00,25.3,15.6,28.32,WNW,292,0.0,0.0,66,0.00,,---,0.00,VWS V14.01,2013-01-15 23:50:00,
2013-01-15 18:55:00,25.3,15.2,28.35,NW,315,0.0,0.0,65,0.00,,---,0.00,VWS V14.01,2013-01-15 23:55:00,
2013-01-15 19:00:00,25.2,15.1,28.35,WNW,292,0.0,0.0,65,0.00,,---,0.00,VWS V14.01,2013-01-16 00:00:00,
2013-01-15 19:05:00,25.3,15.2,28.35,NNW,338,0.0,0.0,65,0.00,,---,0.00,VWS V14.01,2013-01-16 00:05:00,
2013-01-15 19:10:00,25.2,15.1,28.32,WNW,292,0.0,0.0,65,0.00,,---,0.00,VWS V14.01,2013-01-16 00:10:00,
2013-01-15 19:15:00,25.2,15.1,28.32,NNW,338,0.0,0.0,65,0.00,,---,1.33,VWS V14.01,2013-01-16 00:15:00,
2013-01-15 19:20:00,25.2,15.1,28.32,NW,315,0.0,0.0,65,0.00,,---,1.33,VWS V14.01,2013-01-16 00:20:00,
2013-01-15 19:25:00,25.3,15.2,28.35,NNW,338,0.0,0.0,65,0.00,,---,1.33,VWS V14.01,2013-01-16 00:25:00,
2013-01-15 19:30:00,25.3,15.2,28.35,NNW,338,0.0,0.0,65,0.00,,---,1.33,VWS V14.01,2013-01-16 00:30:00,
2013-01-15 19:35:00,25.3,15.2,28.35,NW,315,0.0,0.0,65,0.00,,---,1.33,VWS V14.01,2013-01-16 00:35:00,
2013-01-15 19:40:00,25.3,15.2,28.29,NW,315,0.0,0.0,65,0.00,,---,1.33,VWS V14.01,2013-01-16 00:40:00,
2013-01-15 19:45:00,25.3,15.2,28.29,NNW,338,0.0,0.0,65,0.00,,---,1.33,VWS V14.01,2013-01-16 00:45:00,
2013-01-15 19:50:00,25.3,14.9,28.29,WNW,292,0.0,0.0,64,0.00,,---,1.33,VWS V14.01,2013-01-16 00:50:00,
2013-01-15 19:55:00,25.3,15.2,28.32,NW,315,0.0,0.0,65,0.00,,---,1.33,VWS V14.01,2013-01-16 00:55:00,
2013-01-15 20:00:00,25.3,15.2,28.32,NNW,338,0.0,0.0,65,0.00,,---,1.33,VWS V14.01,2013-01-16 01:00:00,
2013-01-15 20:05:00,25.3,15.6,28.32,NNW,338,0.0,0.0,66,0.00,,---,1.33,VWS V14.01,2013-01-16 01:05:00,
2013-01-15 20:10:00,25.3,15.6,28.32,NNW,338,0.0,0.0,66,0.00,,---,1.33,VWS V14.01,2013-01-16 01:10:00,
2013-01-15 20:15:00,25.3,15.6,28.32,WNW,292,0.0,0.0,66,0.00,,---,1.33,VWS V14.01,2013-01-16 01:15:00,
2013-01-15 20:20:00,25.3,15.6,28.32,WNW,292,0.0,0.0,66,0.00,,---,1.33,VWS V14.01,2013-01-16 01:20:00,
2013-01-15 20:25:00,25.3,15.9,28.32,NW,315,0.0,0.0,67,0.00,,---,1.33,VWS V14.01,2013-01-16 01:25:00,
2013-01-15 20:30:00,25.3,15.9,28.32,WNW,292,0.0,0.0,67,0.00,,---,1.33,VWS V14.01,2013-01-16 01:30:00,
2013-01-15 20:35:00,25.3,15.6,28.32,NNW,338,0.0,0.0,66,0.00,,---,1.33,VWS V14.01,2013-01-16 01:35:00,
2013-01-15 20:40:00,25.3,15.6,28.29,WNW,292,0.0,0.0,66,0.00,,---,1.33,VWS V14.01,2013-01-16 01:40:00,
2013-01-15 20:45:00,25.3,15.6,28.29,WNW,292,0.0,0.0,66,0.00,,---,1.33,VWS V14.01,2013-01-16 01:45:00,
2013-01-15 20:50:00,25.2,15.8,28.29,NNW,338,0.0,0.0,67,0.00,,---,1.33,VWS V14.01,2013-01-16 01:50:00,
2013-01-15 20:55:00,25.2,15.8,28.32,NNW,338,0.0,0.0,67,0.00,,---,1.33,VWS V14.01,2013-01-16 01:55:00,
2013-01-15 21:00:00,25.2,15.8,28.32,West,270,0.0,0.0,67,0.00,,---,1.33,VWS V14.01,2013-01-16 02:00:00,
2013-01-15 21:05:00,25.2,15.8,28.32,NNW,338,0.0,0.0,67,0.00,,---,1.33,VWS V14.01,2013-01-16 02:05:00,
2013-01-15 21:10:00,25.2,15.8,28.32,NNW,338,0.0,0.0,67,0.00,,---,1.33,VWS V14.01,2013-01-16 02:10:00,
2013-01-15 21:15:00,25.0,15.6,28.32,WNW,292,0.0,0.0,67,0.00,,---,1.33,VWS V14.01,2013-01-16 02:15:00,
2013-01-15 21:20:00,25.0,15.6,28.32,NW,315,0.0,0.0,67,0.00,,---,1.33,VWS V14.01,2013-01-16 02:20:00,
2013-01-15 21:25:00,25.0,15.6,28.32,NNW,338,0.0,0.0,67,0.00,,---,1.33,VWS V14.01,2013-01-16 02:25:00,
2013-01-15 21:30:00,25.0,15.6,28.32,WNW,292,0.0,0.0,67,0.00,,---,1.33,VWS V14.01,2013-01-16 02:30:00,
2013-01-15 21:35:00,25.0,15.6,28.32,WNW,292,0.0,0.0,67,0.00,,---,1.33,VWS V14.01,2013-01-16 02:35:00,
2013-01-15 21:40:00,25.0,15.6,28.32,WNW,292,0.0,0.0,67,0.00,,---,1.33,VWS V14.01,2013-01-16 02:40:00,
2013-01-15 21:45:00,25.0,15.6,28.32,WNW,292,0.0,0.0,67,0.00,,---,1.33,VWS V14.01,2013-01-16 02:45:00,
2013-01-15 21:50:00,25.2,15.4,28.32,WNW,292,0.0,0.0,66,0.00,,---,1.33,VWS V14.01,2013-01-16 02:50:00,
2013-01-15 21:55:00,25.2,15.4,28.32,SSE,158,0.0,0.0,66,0.00,,---,1.33,VWS V14.01,2013-01-16 02:55:00,
2013-01-15 22:00:00,25.0,15.2,28.32,WNW,292,0.0,0.0,66,0.00,,---,1.33,VWS V14.01,2013-01-16 03:00:00,
2013-01-15 22:05:00,25.0,15.2,28.32,West,270,0.0,0.0,66,0.00,,---,1.33,VWS V14.01,2013-01-16 03:05:00,
2013-01-15 22:10:00,25.0,15.2,28.32,NNE,22,0.0,0.0,66,0.00,,---,1.33,VWS V14.01,2013-01-16 03:10:00,
2013-01-15 22:15:00,25.0,15.6,28.32,WNW,292,0.0,0.0,67,0.00,,---,1.33,VWS V14.01,2013-01-16 03:15:00,
2013-01-15 22:20:00,24.8,15.4,28.32,WNW,292,0.0,0.0,67,0.00,,---,1.33,VWS V14.01,2013-01-16 03:20:00,
2013-01-15 22:25:00,25.0,15.6,28.32,NNW,338,0.0,0.0,67,0.00,,---,1.33,VWS V14.01,2013-01-16 03:25:00,
2013-01-15 22:30:00,25.0,15.6,28.32,NNW,338,0.0,0.0,67,0.00,,---,1.33,VWS V14.01,2013-01-16 03:30:00,
2013-01-15 22:35:00,25.0,15.6,28.32,WNW,292,0.0,0.0,67,0.00,,---,1.33,VWS V14.01,2013-01-16 03:35:00,
2013-01-15 22:40:00,25.0,15.6,28.32,WNW,292,0.0,0.0,67,0.00,,---,1.33,VWS V14.01,2013-01-16 03:40:00,
2013-01-15 22:45:00,25.0,15.6,28.32,WNW,292,0.0,0.0,67,0.00,,---,1.33,VWS V14.01,2013-01-16 03:45:00,
2013-01-15 22:50:00,25.0,15.6,28.32,WNW,292,0.0,0.0,67,0.00,,---,1.33,VWS V14.01,2013-01-16 03:50:00,
2013-01-15 22:55:00,25.0,15.6,28.32,NNW,338,0.0,0.0,67,0.00,,---,1.33,VWS V14.01,2013-01-16 03:55:00,
2013-01-15 23:00:00,25.0,15.6,28.32,WNW,292,0.0,0.0,67,0.00,,---,1.33,VWS V14.01,2013-01-16 04:00:00,
2013-01-15 23:05:00,25.0,15.9,28.32,NNW,338,0.0,0.0,68,0.00,,---,1.33,VWS V14.01,2013-01-16 04:05:00,
2013-01-15 23:10:00,24.8,15.8,28.32,WSW,248,0.0,0.0,68,0.00,,---,1.33,VWS V14.01,2013-01-16 04:10:00,
2013-01-15 23:15:00,24.8,15.8,28.32,WSW,248,0.0,0.0,68,0.00,,---,1.33,VWS V14.01,2013-01-16 04:15:00,
2013-01-15 23:20:00,24.8,15.8,28.32,NNW,338,0.0,0.0,68,0.00,,---,1.33,VWS V14.01,2013-01-16 04:20:00,
2013-01-15 23:25:00,24.8,15.8,28.32,WNW,292,0.0,0.0,68,0.00,,---,1.33,VWS V14.01,2013-01-16 04:25:00,
2013-01-15 23:30:00,24.8,15.8,28.32,NW,315,0.0,0.0,68,0.00,,---,1.33,VWS V14.01,2013-01-16 04:30:00,
2013-01-15 23:35:00,24.6,15.6,28.32,WNW,292,0.0,0.0,68,0.00,,---,1.33,VWS V14.01,2013-01-16 04:35:00,
2013-01-15 23:40:00,24.8,15.8,28.32,WNW,292,0.0,0.0,68,0.00,,---,1.33,VWS V14.01,2013-01-16 04:40:00,
2013-01-15 23:45:00,24.8,15.8,28.32,West,270,0.0,0.0,68,0.00,,---,1.33,VWS V14.01,2013-01-16 04:45:00,
2013-01-15 23:50:00,24.8,16.1,28.32,NNW,338,0.0,0.0,69,0.00,,---,1.33,VWS V14.01,2013-01-16 04:50:00,
2013-01-15 23:55:00,24.8,16.1,28.29,NNW,338,0.0,0.0,69,0.00,,---,1.33,VWS V14.01,2013-01-16 04:55:00,